Hourly Data Report for September 23, 2017

All times are specified in Local Standard Time (LST). Add 1 hour to adjust for Daylight Saving Time where and when it is observed.

MISCOU ISLAND (AUT)
NEW BRUNSWICK

48°00'32.002" N
64°29'39.008" W
4.00 m
8103050
71719
WMI

Download Data

Hourly Data (September 2017)
Hourly Data Report for September 23, 2017
Temp Definition
°C
Dew Point Temp Definition
°C
Rel Hum Definition
%
Wind Dir Definition
10's deg

Wind Spd Definition
km/h
Visibility Definition
km
Stn Press Definition
kPa
Hmdx Definition


Wind Chill Definition


Weather Definition


TIME
00:00 11.7 8.2 79 21 14   101.61     LegendNANA
01:00 13.2 10.2 82 22 15   101.59     LegendNANA
02:00 13.2 10.4 83 21 16   101.50     LegendNANA
03:00 11.7 9.3 86 20 15   101.39     LegendNANA
04:00 12.1 9.5 84 21 16   101.33     LegendNANA
05:00 13.7 10.2 80 23 19   101.28     LegendNANA
06:00 13.6 11.0 84 23 21   101.21     LegendNANA
07:00 14.6 11.0 79 23 21   101.17     LegendNANA
08:00 17.0 11.5 70 23 19   101.13     LegendNANA
09:00 18.5 11.7 65 23 22   101.09     LegendNANA
10:00 18.2 10.6 61 24 32   101.08     LegendNANA
11:00 19.4 11.5 60 23 29   101.04     LegendNANA
12:00 20.7 12.3 58 25 31   101.00     LegendNANA
13:00 21.8 12.8 57 25 31   101.00     LegendNANA
14:00 22.7 14.1 59 25 28   101.02 26   LegendNANA
15:00 23.1 14.8 60 25 26   101.05 27   LegendNANA
16:00 18.5 13.1 71 32 17   101.18     LegendNANA
17:00 16.9 12.0 73 10 13   101.29     LegendNANA
18:00 16.4 11.9 75 5 15   101.38     LegendNANA
19:00 16.1 11.6 74 1 18   101.48     LegendNANA
20:00 17.5 10.5 64 2 33   101.56     LegendNANA
21:00 16.1 10.9 72 3 27   101.59     LegendNANA
22:00 15.6 10.4 71 2 20   101.66     LegendNANA
23:00 14.9 10.6 75 4 18   101.75     LegendNANA

Notes on Data Quality.

Legend

  • E = Estimated
  • M = Missing
  • NA = Not Available
  • ‡ = Partner data that is not subject to review by the National Climate Archives
Date modified: